Lid_Strength_Index
14 14 14 15 15 15 15 14 14 13 13 13 13 12 12 11 10 10 8 8 8 7
15 15 16 15 15 15 15 15 14 14 13 13 13 12 11 11 11 10 9 9 9 9
16 15 15 16 16 16 15 15 14 14 14 14 13 12 11 11 10 10 10 10 10 9
16 16 15 16 16 16 15 15 15 15 14 14 13 12 12 11 11 11 11 10 10 9
16 16 16 16 16 16 16 15 15 14 13 13 13 12 12 12 12 12 12 11 10 10
17 17 17 17 16 16 15 14 14 14 14 13 13 13 12 12 12 12 11 11 11 11
17 17 16 16 16 15 15 14 14 14 14 14 14 13 12 12 12 11 11 11 11 11
17 17 16 16 16 15 15 15 14 14 14 14 14 13 12 12 12 12 12 12 12 12
17 16 16 16 16 16 16 15 15 15 15 14 14 12 12 12 13 13 13 14 13 13
17 16 16 16 17 16 16 16 15 15 14 14 14 13 13 13 13 14 14 14 14 14
17 17 17 17 17 17 16 16 15 15 15 15 15 14 14 14 14 15 15 15 15 15
18 18 18 18 18 17 16 16 16 16 15 16 15 15 15 15 15 16 16 15 16 16
18 18 18 18 17 17 16 17 16 17 16 16 16 16 15 16 16 17 16 16 16 15
18 18 18 18 18 18 18 18 18 18 17 17 17 17 16 16 17 17 17 17 16 16